INTELSAT 19 (IS-19)

Last updated on Mon Oct 14 2024 00:02:39 GMT+0000 (Coordinated Universal Time)

1 38356U 12030A 24287.51106993 -.00000058 00000+0 00000+0 0 9990 2 38356 0.0156 273.4587 0003155 294.9171 164.1963 1.00269941 44305
UTC large
Height (km)
Speed (km/s)
/
Latitude / Longitude
Inclination (degrees)
Orbital Period (minutes)
Azimuth
Elevation
Range (km)
Doppler Factor

Next 0 passes for location: London (51.5072 / 0.1276)

Sorry there are no passes over London.